BGBW

Narsarsuaq Airport

Narsarsuaq, Greenland
Issued Wind Visibility Ceiling Temperature Dew Point Humidity Barometer
Dec-10
23:50 UTC
250°
2 KTS
  Broken
21,000'AGL
-1° C
30° F
-2° C
28° F
93% 29.59" Hg
1002 hPa
Dec-10
22:50 UTC
070°
3 KTS
  Overcast
1,000'AGL
C
34° F
-2° C
28° F
81% 29.65" Hg
1004 hPa
Dec-10
21:50 UTC
070°
4 KTS
  Broken
10,000'AGL
C
34° F
-1° C
30° F
87% 29.68" Hg
1005 hPa
Dec-10
20:50 UTC
220°
11 KTS
  Broken
1,800'AGL
C
34° F
-1° C
30° F
87% 29.7" Hg
1006 hPa
Dec-10
19:50 UTC
340°
2 KTS
  Broken
9,500'AGL
C
34° F
-1° C
30° F
87% 29.68" Hg
1005 hPa
Dec-10
18:50 UTC
220°
11 KTS
10,000+ meters Broken
8,000'AGL
C
36° F
-2° C
28° F
75% 29.7" Hg
1006 hPa
VFR
Dec-10
17:50 UTC
Varies @2 KTS 10,000+ meters Broken
6,600'AGL
C
39° F
-4° C
25° F
56% 29.7" Hg
1006 hPa
VFR
Dec-10
16:50 UTC
070°
7 KTS
10,000+ meters Broken
7,200'AGL
C
41° F
-7° C
19° F
42% 29.68" Hg
1005 hPa
VFR
Dec-10
15:50 UTC
020°
2 KTS
10,000+ meters Broken
7,000'AGL
C
41° F
-7° C
19° F
42% 29.68" Hg
1005 hPa
VFR
Dec-10
14:50 UTC
130°
1 KTS
10,000+ meters Broken
6,000'AGL
C
43° F
-8° C
18° F
36% 29.68" Hg
1005 hPa
VFR
Dec-10
13:50 UTC
050°
4 KTS
10,000+ meters Broken
7,800'AGL
C
39° F
-7° C
19° F
45% 29.68" Hg
1005 hPa
VFR
Dec-10
12:50 UTC
060°
4 KTS
10,000+ meters Broken
8,000'AGL
C
41° F
-8° C
18° F
39% 29.65" Hg
1004 hPa
VFR
Dec-10
11:50 UTC
060°
10 KTS
10,000+ meters Broken
8,500'AGL
C
43° F
-8° C
18° F
36% 29.62" Hg
1003 hPa
VFR
Dec-10
10:50 UTC
060°
8 KTS
  Broken
8,000'AGL
C
45° F
-8° C
18° F
34% 29.62" Hg
1003 hPa
Dec-10
09:50 UTC
060°
17 KTS
  Overcast
7,500'AGL
C
43° F
-8° C
18° F
36% 29.59" Hg
1002 hPa
Dec-10
08:50 UTC
060°
13 KTS
  Broken
7,000'AGL
C
43° F
-8° C
18° F
36% 29.56" Hg
1001 hPa
Dec-10
07:50 UTC
060°
7 KTS
  Broken
9,500'AGL
C
41° F
-8° C
18° F
39% 29.53" Hg
1000 hPa
Dec-10
06:50 UTC
140°
4 KTS
  Overcast
9,500'AGL
C
45° F
-7° C
19° F
37% 29.5" Hg
999 hPa
Dec-10
05:50 UTC
080°
4 KTS
  Broken
10,000'AGL
C
41° F
-7° C
19° F
42% 29.47" Hg
998 hPa
Dec-10
04:50 UTC
060°
8 KTS
  Broken
15,000'AGL
C
43° F
-7° C
19° F
39% 29.44" Hg
997 hPa
Dec-10
03:50 UTC
060°
11 KTS
Gust 21 KTS
  Broken
14,000'AGL
C
46° F
-7° C
19° F
34% 29.41" Hg
996 hPa
Dec-10
02:50 UTC
050°
7 KTS
  Broken
15,000'AGL
C
43° F
-7° C
19° F
39% 29.38" Hg
995 hPa
Dec-10
01:50 UTC
050°
10 KTS
  Overcast
17,000'AGL
C
46° F
-7° C
19° F
34% 29.35" Hg
994 hPa
Dec-10
00:50 UTC
060°
14 KTS
  Broken
8,500'AGL
C
46° F
-7° C
19° F
34% 29.32" Hg
993 hPa